User: anonymous   Login
Location: Theydon Bois
(51.6750°N, 0.1050°E)
Time: 19:42:42
(UTC+01:00)
Language:

Cosmos 1328 - Orbit

View from above orbital plane
View from above orbital plane
View from above satellite
View from above satellite

Ground track
Ground track

The orbit data is extracted from the following two-line orbital elements,

1 12987U 81117A   18200.55176488 -.00000175 +00000-0 -13457-4 0  9999
2 12987 082.5141 213.9094 0009049 356.3873 003.7288 15.07691287992087
Epoch (UTC): 19 July 2018 13:14:32
Eccentricity: 0.0009049
inclination: 82.5141°
perigee height: 537 km
apogee height: 549 km
right ascension of ascending node: 213.9094°
argument of perigee: 356.3873°
revolutions per day: 15.07691287
mean anomaly at epoch: 3.7288°
orbit number at epoch: 99208

The dashed part of the orbit path shows where the satellite is in the earth's shadow,  

DLR